Stations météo

réclame
Mon MeteoGroup
Cap-de-la Heve, France (7028): Température de l'air & dewpoint: 15.01.2019 17:00:00 - 21.01.2019 17:00:00 (CET)Cap-de-la Heve, France (7028): Température de l'air 5cm: 15.01.2019 17:00:00 - 21.01.2019 17:00:00 (CET)Cap-de-la Heve, France (7028): Vitesse du vent & gusts: 15.01.2019 17:00:00 - 21.01.2019 17:00:00 (CET)Cap-de-la Heve, France (7028): Direction du vent: 15.01.2019 17:00:00 - 21.01.2019 17:00:00 (CET)Cap-de-la Heve, France (7028): reduced air pressure: 15.01.2019 17:00:00 - 21.01.2019 17:00:00 (CET)Cap-de-la Heve, France (7028): visibility: 15.01.2019 17:00:00 - 21.01.2019 17:00:00 (CET)Cap-de-la Heve, France (7028): Quantités de précipitations: 15.01.2019 17:00:00 - 21.01.2019 17:00:00 (CET)
Date & Time tt [°C] td [°C] tt 5cm [°C] ff [km/h] ff [knt] fx [km/h] fx [knt] dd ppp [hPa] vv [km] rr [mm]
21.01.2019 17:00:00 3,9 -4,8 4,1 5 3 13 7 SW 1021,7 - 0,0
21.01.2019 16:00:00 5,0 -5,4 8,3 8 4 16 9 S 1021,9 15 0,0
21.01.2019 15:00:00 4,9 -4,1 8,5 9 5 16 8 S 1022,5 - 0,0
21.01.2019 14:00:00 4,9 -2,7 8,4 8 4 14 8 S 1023,5 - 0,0
21.01.2019 13:00:00 4,7 -6,0 7,1 6 3 15 8 E 1024,3 - 0,0
21.01.2019 12:00:00 3,4 -2,0 5,2 6 3 12 7 SSE 1025,2 - 0,0
21.01.2019 11:00:00 3,2 -2,5 3,4 6 3 12 6 E 1024,8 - 0,0
21.01.2019 10:00:00 1,9 -3,2 0,4 6 3 13 7 ENE 1024,8 10 0,0
21.01.2019 09:00:00 0,8 -3,5 -0,5 8 4 16 9 NE 1024,6 - 0,0
21.01.2019 08:00:00 0,2 -3,5 -1,2 9 5 13 7 NE 1024,4 - 0,0
21.01.2019 07:00:00 -0,1 -3,3 -0,7 11 6 24 13 NNE 1024,1 10 0,0
21.01.2019 06:00:00 0,5 -2,6 -0,1 9 5 18 10 NE 1023,9 - 0,0
21.01.2019 05:00:00 2,0 -2,0 1,3 9 5 19 10 NE 1023,5 - 0,0
21.01.2019 04:00:00 2,8 -1,2 2,0 10 6 23 12 ENE 1023,2 - 0,0
21.01.2019 03:00:00 3,8 -1,6 2,0 11 6 24 13 N 1023,3 - 0,0
21.01.2019 02:00:00 3,7 -2,1 2,8 6 4 21 12 NNE 1023,0 - 0,0
21.01.2019 01:00:00 3,3 -2,2 2,3 9 5 16 9 NNE 1023,1 - 0,0
21.01.2019 00:00:00 3,0 -2,3 2,4 6 4 11 6 ENE 1022,8 - 0,0
20.01.2019 23:00:00 3,1 -2,2 2,4 7 4 15 8 NE 1022,1 - 0,0
20.01.2019 22:00:00 3,0 -1,9 1,9 6 3 17 9 NE 1021,8 - 0,0
20.01.2019 21:00:00 2,9 -1,8 1,7 9 5 18 10 NNE 1021,4 - 0,0
20.01.2019 20:00:00 2,8 -1,6 1,8 9 5 23 12 NNE 1020,9 - 0,0
20.01.2019 19:00:00 2,9 -0,7 2,1 11 6 21 11 NNE 1020,1 15 0,0
20.01.2019 18:00:00 3,6 -0,1 2,6 10 5 18 10 NNE 1019,1 - 0,0
20.01.2019 17:00:00 4,2 1,1 3,9 8 4 24 13 NE 1018,0 - 0,0
20.01.2019 16:00:00 5,2 2,0 5,4 7 4 16 9 ENE 1017,3 - 0,0
20.01.2019 15:00:00 5,3 1,9 5,9 7 4 19 10 NE 1016,9 - 0,0
20.01.2019 14:00:00 5,0 2,2 5,7 9 5 21 11 NE 1016,6 - 0,0
20.01.2019 13:00:00 4,6 2,3 4,4 7 4 19 11 NE 1016,4 - 0,0
20.01.2019 12:00:00 3,8 2,2 3,8 8 4 18 10 NE 1016,1 - 0,0
20.01.2019 11:00:00 3,7 0,9 3,8 8 5 23 13 ENE 1015,5 - 0,0
20.01.2019 10:00:00 3,7 0,7 3,1 11 6 23 12 NE 1014,4 15 0,0
20.01.2019 09:00:00 3,1 0,8 2,9 9 5 16 9 ENE 1013,4 - 0,0
20.01.2019 08:00:00 2,8 1,3 2,7 9 5 17 9 ENE 1012,6 - 0,0
20.01.2019 07:00:00 2,6 1,9 2,5 8 4 18 10 ENE 1011,9 10 0,0
20.01.2019 06:00:00 2,4 2,1 2,3 9 5 23 13 NE 1011,2 - 0,0
20.01.2019 05:00:00 2,2 1,8 2,3 11 6 19 10 NE 1010,9 - 0,0
20.01.2019 04:00:00 2,3 1,9 2,4 9 5 16 9 NE 1010,5 - 0,0
20.01.2019 03:00:00 2,4 2,1 2,3 10 5 16 9 NE 1010,2 - 0,0
20.01.2019 02:00:00 2,2 1,8 2,3 11 6 19 10 E 1009,6 - 0,0
20.01.2019 01:00:00 2,3 1,9 2,4 12 7 20 11 E 1009,6 - 0,0
20.01.2019 00:00:00 2,2 1,6 2,3 13 7 24 13 E 1009,3 - 0,0
19.01.2019 23:00:00 2,2 1,6 2,3 14 7 23 12 E 1009,0 - 0,0
19.01.2019 22:00:00 2,2 1,5 2,1 14 8 23 12 E 1008,6 - 0,0
19.01.2019 21:00:00 2,1 1,4 2,1 15 8 26 14 E 1008,3 - 0,0
19.01.2019 20:00:00 2,2 1,5 2,2 14 8 23 13 E 1008,2 - 0,0
19.01.2019 19:00:00 2,2 1,6 2,2 16 8 26 14 E 1008,0 10 0,0
19.01.2019 18:00:00 2,3 1,6 2,3 16 9 29 16 E 1007,7 - 0,0
19.01.2019 17:00:00 2,6 1,7 2,7 18 10 28 15 E 1007,4 - 0,0
19.01.2019 16:00:00 2,8 1,9 2,9 16 9 29 16 ESE 1007,5 - 0,0
19.01.2019 15:00:00 2,9 1,9 2,6 16 8 32 17 SE 1007,8 - 0,0
19.01.2019 14:00:00 2,4 1,4 2,6 16 9 34 18 SE 1008,3 - 0,0
19.01.2019 13:00:00 2,3 1,0 2,3 19 10 36 20 SE 1009,0 - 0,0
19.01.2019 12:00:00 1,9 0,4 1,8 21 11 35 19 ESE 1009,6 - 0,0
19.01.2019 11:00:00 1,7 0,5 0,8 22 12 38 20 ESE 1009,8 - 0,0
19.01.2019 10:00:00 0,7 -0,2 0,2 23 13 40 21 ESE 1009,8 - 0,2
19.01.2019 09:00:00 0,4 -0,9 0,2 27 15 45 24 ESE 1009,5 - 0,2
19.01.2019 08:00:00 0,5 -1,1 0,1 26 14 45 24 ESE 1009,4 - 0,2
19.01.2019 07:00:00 0,6 -1,6 0,2 29 16 48 26 ESE 1009,7 5 0,0
19.01.2019 06:00:00 1,1 -2,1 0,3 28 15 46 25 ESE 1010,1 - 0,4
19.01.2019 05:00:00 1,2 -2,4 0,5 27 15 41 22 ESE 1010,8 - 0,0
19.01.2019 04:00:00 1,3 -2,8 1,1 29 15 44 24 E 1011,5 - 0,0
19.01.2019 03:00:00 2,0 -3,5 1,4 27 15 41 22 ESE 1011,9 - 0,0
19.01.2019 02:00:00 1,6 -3,5 1,3 23 13 40 22 SE 1012,7 - 0,0
19.01.2019 01:00:00 1,8 -3,5 1,3 23 12 42 23 SE 1013,4 - 0,0
19.01.2019 00:00:00 1,6 -3,1 1,3 25 14 45 25 SE 1013,9 - 0,0
18.01.2019 23:00:00 1,8 -2,9 1,2 21 11 41 22 SE 1014,1 - 0,0
18.01.2019 22:00:00 1,9 -2,6 1,4 22 12 42 23 SE 1014,1 - 0,0
18.01.2019 21:00:00 2,1 -2,8 1,5 25 14 43 23 SE 1014,4 - 0,0
18.01.2019 20:00:00 2,1 -2,8 1,6 23 13 39 21 SE 1014,8 - 0,0
18.01.2019 19:00:00 2,8 -2,9 2,2 20 11 37 20 SE 1015,3 20 0,0
18.01.2019 18:00:00 3,6 -3,2 2,9 21 11 34 19 SE 1015,6 - 0,0
18.01.2019 17:00:00 4,7 -3,6 5,5 23 12 36 19 SSE 1015,8 - 0,0
18.01.2019 16:00:00 5,7 -2,4 8,1 21 11 36 19 SSE 1016,2 - 0,0
18.01.2019 15:00:00 5,6 -2,0 8,6 20 11 34 18 SSE 1016,7 - 0,0
18.01.2019 14:00:00 4,9 -2,5 6,2 19 10 31 17 S 1017,5 - 0,0
18.01.2019 13:00:00 4,2 -2,4 4,7 20 11 32 18 S 1018,3 - 0,0
18.01.2019 12:00:00 4,1 -2,3 4,2 21 11 36 19 S 1018,9 - 0,0
18.01.2019 11:00:00 3,3 -2,5 3,2 23 13 - - SSW 1019,3 - 0,0
18.01.2019 10:00:00 3,2 -2,5 1,9 13 7 - - ESE 1019,3 20 0,0
18.01.2019 09:00:00 2,5 -2,4 1,2 - - - - - 1019,4 - 0,0
18.01.2019 08:00:00 2,1 -2,8 1,1 - - - - - 1019,4 - 0,0
18.01.2019 07:00:00 2,5 -3,0 0,9 - - - - - 1019,2 25 0,0
18.01.2019 06:00:00 2,4 -2,5 1,4 - - - - - 1019,5 - 0,0
18.01.2019 05:00:00 2,3 -1,1 1,5 - - - - - 1019,9 - 0,0
18.01.2019 04:00:00 2,7 -0,9 2,0 - - - - - 1020,1 25 0,0
18.01.2019 03:00:00 2,8 -0,8 1,8 - - - - - 1020,4 - 0,0
18.01.2019 02:00:00 3,2 -3,2 1,8 - - - - - 1020,1 - 0,0
18.01.2019 01:00:00 3,7 -3,6 2,3 - - - - - 1020,1 30 0,0
18.01.2019 00:00:00 3,8 -3,5 2,8 8 4 11 6 NE 1020,0 - 0,0
17.01.2019 23:00:00 3,7 -3,4 1,9 - - 11 6 - 1019,9 - 0,0
17.01.2019 22:00:00 3,8 -3,5 2,7 8 4 23 13 NNE 1019,3 40 0,0
17.01.2019 21:00:00 4,7 -3,6 3,4 11 6 - - N 1018,9 - 0,0
17.01.2019 20:00:00 5,0 -4,1 3,5 15 8 31 17 N 1018,5 - 0,0
17.01.2019 19:00:00 4,8 -4,2 3,1 15 8 31 17 N 1017,8 25 0,0
17.01.2019 18:00:00 4,6 -3,7 3,1 17 9 34 18 N 1017,1 - 0,0
17.01.2019 17:00:00 5,0 -4,1 5,0 20 11 43 23 N 1016,0 - 0,0
17.01.2019 16:00:00 5,4 -2,9 7,9 20 11 39 21 N 1015,4 40 0,0
17.01.2019 15:00:00 5,4 -3,4 6,6 22 12 46 25 N 1014,4 - 0,0
17.01.2019 14:00:00 5,4 -3,9 4,9 27 15 49 26 N 1013,6 - 0,0
17.01.2019 13:00:00 6,4 1,9 6,6 24 13 44 24 N 1012,6 20 0,0
17.01.2019 12:00:00 6,9 1,6 7,1 23 12 39 21 NNW 1012,2 - 0,0
17.01.2019 11:00:00 7,3 2,0 6,5 17 9 43 23 NNW 1011,5 - 0,0
17.01.2019 10:00:00 6,7 1,6 5,5 20 11 50 27 NNW 1010,6 - 0,0
17.01.2019 09:00:00 6,6 1,9 5,2 26 14 54 29 NNW 1009,7 - 0,0
17.01.2019 08:00:00 6,6 2,7 4,9 28 15 69 37 NNW 1008,0 - 0,0
17.01.2019 07:00:00 6,5 2,9 5,1 35 19 71 38 NW 1006,5 15 0,4
17.01.2019 06:00:00 6,4 4,4 5,5 49 26 79 43 W 1005,3 - 1,6
17.01.2019 05:00:00 6,4 4,6 5,5 27 15 60 32 SW 1005,0 - 0,0
17.01.2019 04:00:00 6,2 4,5 5,4 28 15 70 38 SW 1005,3 14 0,4
17.01.2019 03:00:00 6,3 4,9 5,3 25 13 59 32 SW 1005,5 - 1,0
17.01.2019 02:00:00 6,6 5,4 5,9 13 7 54 29 SSW 1005,7 - 0,0
17.01.2019 01:00:00 6,9 4,9 6,3 15 8 42 23 SSW 1006,3 - 0,0
17.01.2019 00:00:00 7,0 5,3 5,4 12 6 29 16 SW 1006,7 - 0,2
16.01.2019 23:00:00 7,0 5,1 6,0 15 8 31 17 W 1006,7 - 0,6
16.01.2019 22:00:00 7,6 5,2 6,6 19 10 37 20 NW 1006,7 15 0,0
16.01.2019 21:00:00 7,2 6,9 6,1 16 9 59 32 W 1006,3 - 0,6
16.01.2019 20:00:00 6,5 5,6 6,1 17 9 - - SSW 1005,6 - 0,0
16.01.2019 19:00:00 6,8 4,9 6,7 - - - - - 1005,5 15 0,0
16.01.2019 18:00:00 6,7 5,2 6,0 - - - - - 1006,1 - 0,0
16.01.2019 17:00:00 7,2 4,7 6,8 - - - - - 1006,5 - 0,0
16.01.2019 16:00:00 7,4 4,0 7,4 15 8 - - SW 1006,8 - 0,0
16.01.2019 15:00:00 7,1 4,1 7,0 14 8 - - S 1007,5 - 0,0
16.01.2019 14:00:00 6,6 3,0 6,7 24 13 49 26 SSW 1008,2 - 0,0
16.01.2019 13:00:00 6,2 2,6 6,2 16 9 48 26 SSW 1009,0 - 0,0
16.01.2019 12:00:00 5,8 2,1 5,8 22 12 - - SSW 1010,5 - 0,0
16.01.2019 11:00:00 5,6 2,1 5,4 - - - - - 1011,4 - 0,0
16.01.2019 10:00:00 5,2 1,7 4,9 - - - - - 1012,0 16 0,0
16.01.2019 09:00:00 5,3 1,4 5,3 - - - - - 1012,5 - 0,0
16.01.2019 08:00:00 5,4 1,1 5,4 - - - - - 1013,0 - 0,0
16.01.2019 07:00:00 5,6 1,7 5,6 - - - - - 1013,4 - 0,0
16.01.2019 06:00:00 5,7 2,0 5,6 - - - - - 1014,3 - 0,0
16.01.2019 05:00:00 5,8 2,1 5,7 - - - - - 1015,0 - 0,0
16.01.2019 04:00:00 5,8 2,3 5,8 - - - - - 1015,8 30 0,0
16.01.2019 03:00:00 6,0 2,5 6,0 - - - - - 1016,3 - 0,0
16.01.2019 02:00:00 6,1 2,7 6,1 - - - - - 1017,0 - 0,0
16.01.2019 01:00:00 6,2 2,8 6,2 - - - - - 1017,8 30 0,0
16.01.2019 00:00:00 6,5 3,3 6,4 - - - - - 1018,4 - 0,0
15.01.2019 23:00:00 6,6 3,6 6,6 - - - - - 1019,1 - 0,0
15.01.2019 22:00:00 6,9 3,9 6,8 - - - - - 1019,7 - 0,0
15.01.2019 21:00:00 7,0 4,1 6,6 - - - - - 1020,0 - 0,0
15.01.2019 20:00:00 7,0 4,8 6,1 - - - - - 1020,5 - 0,0
15.01.2019 19:00:00 7,2 5,2 6,5 - - - - - 1020,8 15 0,0
15.01.2019 18:00:00 7,1 5,6 6,5 - - - - - 1021,2 - 0,0
15.01.2019 17:00:00 7,0 6,1 6,7 - - - - - 1021,7 - 0,2

tt = Température de l'air
td = dewpoint
tt 5cm = Température de l'air 5cm
ff = Vitesse du vent
fx = gusts
dd = Direction du vent
ppp = reduced air pressure
vv = visibility
rr = Quantités de précipitations

stations d'obs. à proximité